Wind_Speed
20 20 19 18 18 18 20 22 22 23 24 23 23 24 24 25 24 24 23 23 23 22 21 21 20 19 19 19 18 17 17 17 17 17 17 17 16 16 15 14 14 14 13 13
22 21 19 19 19 19 19 21 22 23 24 24 23 23 23 24 24 23 22 21 21 20 19 18 18 17 17 16 15 15 15 15 15 15 15 14 14 13 13 13 13 13 12 13
23 22 21 19 18 19 19 20 22 22 24 23 22 21 21 22 23 22 21 20 19 18 18 17 16 15 15 14 13 13 13 13 13 14 13 13 12 12 13 13 13 12 12 12
22 22 22 18 18 19 20 20 21 23 24 23 22 21 19 20 21 20 19 19 18 17 16 15 14 14 14 13 12 12 12 12 13 13 12 12 13 13 13 13 13 13 12 12
22 21 21 19 19 19 20 20 20 21 21 22 21 21 19 18 18 19 18 18 17 16 15 14 13 13 12 11 11 11 12 12 12 12 12 13 13 13 12 13 12 11 11 12
22 22 22 19 17 17 18 19 18 19 20 19 19 19 17 17 17 17 17 16 15 14 13 13 12 12 11 10 10 10 11 11 11 11 12 12 12 12 12 13 12 12 13 13
21 22 21 17 15 16 17 18 17 17 17 17 17 17 16 16 15 15 14 14 13 12 11 11 11 10 10 10 10 10 10 11 11 11 11 11 11 11 12 12 12 12 13 13
21 21 19 16 16 16 17 18 17 16 15 15 15 15 15 14 14 13 13 12 11 10 10 10 10 10 10 10 10 10 10 9 10 10 11 11 11 11 12 12 11 11 12 13
22 22 19 18 18 17 17 16 16 16 14 14 13 13 13 13 12 11 10 10 10 10 10 9 9 9 9 9 9 9 9 9 9 10 10 10 10 11 11 11 11 11 12 12
24 22 20 19 17 17 17 16 15 14 14 14 13 11 11 11 10 9 9 9 9 9 9 9 9 8 9 8 8 8 8 8 9 9 9 10 10 10 11 11 11 12 12 12
23 21 20 19 17 16 16 15 15 14 13 13 12 10 9 9 9 8 7 7 8 8 8 8 8 8 8 7 8 8 7 7 8 9 9 9 10 10 10 11 11 12 12 12
22 18 19 20 18 17 17 15 13 13 12 12 11 9 9 8 8 7 6 6 6 7 7 7 7 7 7 7 7 8 7 7 8 9 9 10 10 10 10 11 11 12 12 12
22 20 18 19 18 17 15 14 13 12 11 10 9 8 8 7 7 6 5 5 5 6 6 6 6 6 7 7 7 8 8 8 8 9 9 10 10 10 11 11 11 12 12 13
22 22 20 19 17 16 15 13 12 12 11 10 8 7 6 5 5 4 4 4 5 6 6 6 6 6 6 7 7 7 8 8 9 9 10 10 10 10 11 11 12 12 13 13
21 20 18 16 14 15 14 13 12 11 11 10 8 7 5 4 3 3 3 4 5 5 5 5 6 6 6 6 7 7 8 8 9 10 10 10 10 11 11 12 13 13 13 14
20 20 18 15 15 15 14 12 11 10 10 9 8 6 5 3 3 2 3 4 5 5 5 5 6 6 6 6 6 8 8 8 9 10 10 10 10 11 12 13 14 14 15 15
21 20 18 17 16 14 14 12 10 10 10 9 8 7 6 5 4 3 3 3 4 4 4 5 5 6 6 7 7 7 8 9 10 10 11 11 12 13 13 14 15 15 16 16
20 19 17 16 15 13 13 11 11 11 10 9 8 8 6 5 4 3 3 2 3 4 5 5 6 6 7 7 7 7 8 9 10 10 11 12 13 14 15 15 16 16 17 17
20 19 18 16 14 12 11 11 11 11 10 9 9 8 8 6 4 3 2 2 2 3 5 6 6 7 7 7 7 8 9 9 10 11 12 13 14 15 16 16 16 17 17 18
19 18 18 15 13 12 12 12 12 11 10 9 9 9 8 7 5 3 2 2 2 4 5 6 6 7 7 8 8 8 9 10 11 12 13 14 15 16 16 16 17 17 18 19
20 19 18 16 14 13 12 12 12 11 10 9 9 9 8 7 5 4 3 2 2 3 4 5 6 7 8 8 9 9 10 11 12 13 14 15 16 16 17 18 19 19 20 21
20 19 18 16 14 14 13 13 12 11 9 9 9 9 8 7 6 5 4 3 2 3 4 5 6 7 8 9 9 10 11 12 13 14 15 16 17 17 18 19 20 21 22 23
20 19 18 16 15 14 13 13 12 11 10 9 9 9 8 7 6 5 4 3 3 4 5 6 7 8 8 9 10 11 12 13 14 15 16 17 18 19 20 21 22 23 24 25
20 19 18 17 15 14 13 13 12 12 10 9 9 8 8 7 7 5 4 4 4 5 6 6 7 8 9 10 11 12 14 15 16 16 17 18 20 21 22 23 24 24 25 26
20 19 18 17 16 15 13 12 12 12 11 10 9 8 8 8 7 6 5 5 5 6 7 7 7 9 10 11 12 14 15 16 17 18 18 20 21 22 24 25 25 26 27 28
21 20 19 18 16 14 13 13 12 11 11 10 9 8 8 8 7 7 6 6 6 6 7 7 9 10 11 13 14 15 16 17 18 19 20 21 22 24 25 26 27 28 29 29
21 20 19 18 16 14 13 13 12 11 10 10 9 8 8 8 7 7 6 6 7 7 7 8 9 11 12 14 15 16 17 18 19 20 22 23 25 25 26 27 28 29 30 30
Wind_Direction
274 277 278 276 279 280 273 273 275 279 284 288 288 291 292 296 301 304 304 304 302 303 303 302 301 303 305 304 305 306 308 307 307 310 312 314 315 312 310 310 313 315 315 313
274 273 272 272 277 279 278 279 280 282 285 286 288 291 294 297 300 302 305 305 304 303 302 303 303 303 307 308 307 309 313 314 315 320 323 322 320 314 312 314 315 317 318 319
277 276 274 272 277 280 278 275 277 279 283 288 292 291 294 297 299 303 307 307 305 304 303 304 304 306 307 309 309 311 313 317 323 329 331 329 326 325 322 324 325 324 322 322
277 275 273 279 280 279 277 279 280 280 283 285 288 291 294 297 300 303 304 307 306 304 303 304 305 307 309 309 309 312 317 322 326 328 333 334 331 331 332 331 328 330 329 328
272 274 277 279 281 282 284 284 284 281 282 286 290 291 293 297 301 305 305 306 305 303 303 304 307 310 311 309 310 312 319 326 327 330 332 334 331 332 334 336 337 336 334 334
270 275 277 281 283 283 281 283 284 285 288 289 290 294 296 299 301 304 305 306 305 303 301 302 308 312 314 313 313 314 317 322 324 328 332 335 336 336 337 338 339 340 342 340
270 271 275 281 282 279 275 277 280 283 288 288 291 295 297 301 302 305 307 308 308 307 305 308 313 318 318 317 317 316 316 318 322 327 329 333 336 336 334 336 339 341 342 341
266 267 271 276 275 274 274 276 278 281 285 286 290 296 299 303 306 307 311 314 314 314 313 313 317 319 320 321 321 320 321 323 327 330 333 334 335 337 339 339 338 339 341 343
258 259 264 265 267 269 270 274 278 279 285 285 288 294 297 302 306 308 311 314 317 315 315 319 318 319 322 325 326 325 324 327 330 334 336 338 339 342 344 346 346 345 345 347
254 254 255 258 260 263 267 270 275 275 280 282 286 291 294 300 307 309 311 314 317 319 322 325 324 324 327 329 332 333 331 330 333 338 340 343 344 346 348 349 350 350 349 347
255 252 249 252 255 258 262 266 272 273 276 279 281 284 288 293 302 307 312 315 321 325 329 331 332 330 334 338 341 342 341 342 340 343 344 347 351 350 351 353 352 351 349 349
253 249 242 246 252 255 260 264 269 270 269 271 275 279 284 289 299 304 311 319 324 327 332 336 339 343 347 348 349 349 348 347 350 351 354 354 353 353 353 352 351 351 352 351
246 246 244 242 245 248 253 257 263 265 263 266 267 273 279 279 287 296 304 315 328 335 338 341 343 347 352 354 355 356 355 353 353 355 356 355 351 353 353 352 352 353 352 351
240 241 242 242 242 242 245 248 254 258 257 254 254 262 270 270 276 291 305 317 330 339 343 343 343 346 350 356 358 358 357 354 353 352 351 351 351 352 352 352 352 350 349 348
235 234 235 236 237 238 237 241 246 248 251 246 245 253 251 253 259 282 312 323 331 340 343 346 349 353 357 0 2 360 356 354 354 352 352 353 352 351 351 349 347 347 346 344
228 230 233 235 237 236 236 238 234 235 240 234 235 235 233 242 262 282 310 329 333 343 351 352 354 359 0 359 359 359 356 354 352 352 353 352 349 348 347 346 346 346 344 343
223 225 226 228 230 231 232 230 227 232 233 229 227 227 231 242 254 279 304 330 337 345 353 354 354 354 357 355 351 354 357 357 356 355 356 354 351 347 344 342 341 341 341 340
217 218 219 220 219 222 224 224 225 227 225 224 225 222 224 231 243 265 293 324 342 348 356 354 349 348 348 347 348 350 352 355 356 356 353 350 348 345 345 343 341 340 339 339
213 212 213 214 214 214 218 220 221 220 216 215 217 214 219 223 235 253 280 308 335 343 346 349 348 347 345 343 342 343 345 348 349 347 345 344 343 342 342 341 340 339 339 337
206 206 207 207 209 210 212 215 215 212 209 213 212 209 211 218 229 242 252 290 318 330 337 343 347 349 348 346 344 342 341 341 342 341 341 340 341 342 343 342 341 340 338 337
202 202 203 205 208 205 206 210 209 205 208 208 206 206 208 216 225 230 236 258 306 333 342 343 344 347 346 345 343 342 341 341 341 340 339 339 340 340 340 340 339 338 336 335
199 201 201 204 207 205 205 205 202 202 203 204 205 205 208 213 219 224 234 251 290 331 338 338 339 343 343 343 343 341 340 339 339 338 338 338 339 339 338 337 336 334 334 333
199 200 200 202 202 202 200 196 199 200 202 204 206 205 208 215 220 224 232 247 273 299 318 332 335 337 339 339 339 338 337 337 336 336 336 336 337 337 336 335 334 333 332 331
198 199 197 196 197 198 197 194 196 198 201 204 205 209 214 218 221 225 236 251 271 289 304 317 325 330 332 333 334 334 335 335 335 335 335 335 334 333 334 334 334 334 333 331
195 195 195 196 197 196 195 196 200 202 203 205 208 214 219 221 224 231 243 256 273 290 300 308 316 323 326 329 331 332 332 333 333 333 333 334 333 333 333 332 332 331 331 330
194 196 197 196 195 195 197 199 200 203 205 208 212 215 219 221 227 236 248 262 276 291 301 309 315 320 323 327 330 330 330 330 330 330 331 332 332 331 330 330 331 331 331 331
194 196 197 197 195 196 200 204 205 205 209 215 218 220 224 230 236 244 255 268 280 291 300 308 313 318 321 323 325 325 327 328 329 329 329 329 329 329 329 330 330 330 331 331
Height
5823 5822 5822 5821 5821 5821 5820 5819 5818 5816 5813 5812 5810 5807 5804 5802 5800 5797 5795 5792 5789 5786 5784 5781 5779 5776 5774 5772 5769 5767 5765 5763 5761 5758 5756 5753 5750 5747 5745 5743 5742 5740 5737 5735
5817 5817 5817 5817 5816 5816 5815 5814 5813 5810 5809 5806 5805 5803 5800 5798 5796 5793 5790 5788 5785 5782 5780 5777 5775 5773 5771 5769 5766 5765 5763 5761 5758 5756 5753 5750 5747 5745 5742 5741 5739 5737 5735 5733
5810 5811 5810 5811 5812 5811 5810 5809 5807 5805 5804 5801 5799 5798 5796 5794 5791 5789 5786 5783 5781 5778 5776 5774 5772 5770 5768 5766 5764 5762 5760 5758 5756 5753 5750 5748 5746 5743 5741 5739 5737 5735 5733 5731
5804 5805 5803 5808 5806 5805 5804 5803 5802 5800 5798 5797 5795 5793 5791 5789 5787 5785 5782 5780 5777 5775 5773 5770 5769 5767 5765 5763 5762 5760 5758 5756 5754 5752 5749 5747 5745 5742 5740 5738 5735 5733 5731 5730
5798 5798 5798 5801 5801 5799 5798 5797 5796 5794 5793 5792 5790 5789 5787 5785 5783 5781 5779 5776 5774 5772 5770 5768 5766 5764 5763 5761 5759 5758 5756 5754 5752 5750 5748 5746 5743 5741 5739 5737 5734 5732 5730 5729
5792 5792 5792 5796 5796 5794 5794 5792 5791 5789 5788 5787 5786 5785 5784 5781 5779 5777 5775 5773 5771 5769 5767 5765 5764 5762 5760 5759 5757 5756 5754 5752 5751 5749 5747 5745 5743 5740 5738 5736 5734 5732 5730 5728
5786 5786 5787 5790 5790 5789 5789 5788 5786 5785 5784 5783 5782 5781 5780 5777 5776 5774 5772 5770 5768 5766 5765 5763 5762 5760 5758 5757 5755 5754 5753 5751 5749 5748 5746 5744 5742 5740 5738 5735 5733 5731 5729 5727
5781 5781 5784 5785 5785 5784 5783 5782 5781 5780 5780 5779 5778 5778 5776 5774 5773 5771 5769 5767 5766 5764 5763 5761 5760 5758 5757 5755 5754 5752 5751 5750 5748 5747 5745 5743 5741 5739 5737 5735 5733 5731 5729 5726
5775 5777 5778 5778 5778 5778 5778 5778 5777 5777 5777 5776 5775 5775 5773 5772 5770 5768 5767 5766 5764 5763 5761 5760 5758 5757 5756 5754 5753 5751 5750 5749 5747 5746 5744 5742 5741 5739 5737 5735 5732 5730 5728 5726
5767 5769 5771 5772 5772 5772 5773 5773 5773 5773 5773 5773 5773 5772 5771 5769 5768 5766 5765 5764 5763 5761 5760 5758 5757 5756 5755 5753 5752 5750 5749 5748 5747 5745 5744 5742 5740 5738 5736 5734 5732 5730 5728 5726
5760 5763 5764 5766 5767 5767 5768 5769 5770 5770 5770 5770 5769 5769 5768 5767 5766 5764 5764 5762 5761 5760 5759 5757 5756 5755 5754 5752 5751 5750 5749 5748 5746 5745 5743 5742 5740 5738 5736 5734 5732 5730 5728 5725
5753 5755 5757 5760 5762 5763 5764 5765 5766 5766 5766 5766 5766 5766 5766 5765 5764 5763 5762 5761 5760 5759 5758 5757 5756 5755 5753 5752 5751 5749 5748 5747 5746 5744 5743 5741 5740 5738 5736 5734 5732 5730 5728 5725
5747 5749 5751 5754 5757 5759 5760 5761 5762 5762 5763 5763 5764 5764 5763 5763 5763 5762 5761 5760 5759 5758 5757 5756 5755 5754 5753 5752 5750 5749 5748 5747 5746 5744 5743 5741 5740 5738 5736 5734 5732 5730 5728 5725
5741 5744 5746 5749 5752 5754 5755 5757 5758 5759 5759 5760 5761 5761 5761 5761 5761 5761 5760 5760 5759 5758 5757 5756 5755 5754 5753 5752 5750 5749 5748 5747 5746 5745 5743 5741 5739 5737 5736 5734 5732 5730 5728 5725
5736 5739 5742 5744 5747 5750 5751 5753 5754 5755 5756 5757 5758 5759 5759 5759 5759 5760 5759 5759 5758 5757 5756 5756 5755 5754 5753 5752 5751 5750 5748 5747 5746 5744 5743 5741 5739 5737 5735 5733 5731 5729 5727 5724
5731 5734 5737 5740 5743 5745 5747 5748 5750 5751 5753 5754 5755 5756 5757 5757 5758 5758 5758 5758 5758 5757 5756 5756 5755 5754 5753 5752 5751 5750 5749 5747 5746 5744 5743 5741 5739 5737 5735 5733 5730 5728 5725 5723
5726 5730 5733 5736 5738 5741 5743 5744 5746 5748 5750 5751 5753 5754 5755 5756 5757 5757 5757 5757 5757 5757 5756 5755 5755 5754 5753 5752 5751 5750 5749 5747 5746 5744 5742 5740 5738 5736 5734 5732 5729 5726 5724 5721
5721 5725 5728 5731 5733 5736 5739 5741 5743 5745 5747 5749 5750 5752 5754 5755 5756 5756 5757 5757 5757 5757 5756 5755 5755 5754 5753 5752 5751 5750 5749 5747 5746 5744 5742 5740 5738 5735 5733 5730 5728 5725 5722 5719
5717 5721 5724 5727 5730 5732 5736 5738 5741 5743 5745 5747 5749 5751 5752 5754 5755 5756 5756 5756 5756 5756 5756 5755 5755 5754 5753 5752 5751 5750 5748 5747 5745 5743 5741 5739 5737 5734 5732 5729 5726 5723 5720 5717
5714 5718 5722 5725 5728 5731 5734 5736 5739 5741 5743 5745 5747 5749 5751 5753 5754 5755 5755 5756 5756 5756 5756 5755 5754 5754 5753 5752 5750 5749 5748 5746 5744 5742 5740 5738 5735 5732 5730 5727 5724 5721 5718 5714
5711 5715 5719 5722 5725 5728 5731 5734 5737 5739 5741 5744 5746 5748 5750 5751 5753 5754 5754 5755 5755 5754 5754 5754 5754 5753 5752 5751 5750 5748 5747 5745 5743 5741 5739 5736 5734 5731 5728 5725 5722 5718 5715 5712
5710 5713 5717 5720 5723 5727 5729 5732 5735 5737 5740 5742 5744 5746 5748 5750 5751 5752 5753 5754 5755 5754 5754 5753 5753 5752 5751 5750 5749 5747 5746 5744 5742 5740 5737 5734 5732 5729 5726 5723 5719 5716 5712 5709
5708 5712 5715 5719 5722 5725 5728 5731 5733 5736 5738 5741 5743 5745 5747 5749 5750 5751 5752 5753 5753 5753 5753 5752 5752 5752 5751 5749 5748 5746 5745 5743 5740 5738 5735 5733 5730 5726 5723 5720 5716 5712 5709 5705
5706 5710 5713 5717 5720 5723 5726 5729 5732 5735 5737 5739 5741 5743 5745 5747 5749 5750 5751 5752 5752 5752 5752 5752 5751 5750 5749 5748 5747 5745 5743 5741 5738 5736 5733 5730 5727 5724 5720 5717 5713 5709 5705 5701
5704 5708 5713 5716 5719 5722 5725 5728 5731 5733 5736 5738 5740 5741 5743 5745 5747 5748 5749 5750 5750 5751 5751 5750 5749 5748 5748 5746 5745 5743 5741 5738 5736 5733 5731 5728 5724 5721 5717 5713 5709 5705 5701 5696
5703 5707 5711 5715 5718 5721 5724 5726 5729 5731 5734 5736 5738 5740 5741 5743 5745 5746 5747 5748 5748 5749 5749 5748 5747 5746 5745 5744 5742 5740 5738 5736 5733 5730 5728 5724 5721 5717 5713 5709 5705 5701 5696 5691
5702 5706 5709 5713 5716 5719 5722 5725 5728 5730 5732 5734 5736 5738 5739 5741 5743 5744 5745 5746 5746 5746 5746 5746 5745 5744 5743 5741 5739 5737 5735 5733 5730 5727 5724 5721 5717 5713 5709 5705 5701 5696 5691 5687